Weather History for KAUS - November, 2013

Change the Weather History Date:

Thursday, November 28, 2013

  Actual Average Record
Temperature  
Mean Temperature 41 °F 54 °F  
Max Temperature 56 °F 67 °F 88 °F (1949)
Min Temperature 26 °F 41 °F 25 °F (1976)
Degree Days  
Heating Degree Days 24 12  
Month to date heating degree days 260 210  
Since 1 July heating degree days 296 261  
Cooling Degree Days 0 1  
Month to date cooling degree days 37 38  
Year to date cooling degree days 3040 2741  
Moisture  
Dew Point 27 °F    
Average Humidity 58    
Maximum Humidity 92    
Minimum Humidity 24    
Precipitation  
Precipitation 0.00 in 0.09 in 1.78 in (1952)
Month to date precipitation 2.16 2.78  
Year to date precipitation 36.18 32.74  
Snow  
Snow 0.00 in - - ()
Month to date snowfall 0.0  
Since 1 July snowfall 0.0  
Since 1 September snowfall 0.0  
Snow Depth 0.00 in    
Sea Level Pressure  
Sea Level Pressure 30.43 in    
Wind  
Wind Speed 1 mph (SSW)    
Max Wind Speed 8 mph    
Max Gust Speed 10 mph    
Visibility 10 miles    
Events      
T = Trace of Precipitation, MM = Missing Value Source: NWS Daily Summary

Daily Weather History Graph

Daily Weather History Graph

Search for Another Location

Airport or City:

Trip Planner

Search our weather history database for the weather conditions in past years. The results will help you decide how hot, cold, wet, or windy it might be!

Date:

Astronomy

Nov. 28, 2013 Rise Set
Actual Time 7:07 AM CST 5:30 PM CST
Civil Twilight 6:41 AM CST 5:56 PM CST
Nautical Twilight 6:11 AM CST 6:25 PM CST
Astronomical Twilight 5:42 AM CST 6:54 PM CST
Moon 2:29 AM CST (11/28) 2:24 PM CST (11/28)
Length of Visible Light 11h 15m
Length of Day
10h 23m
Waning Crescent, 22% of the Moon is Illuminated
Nov 28
Waning Crescent
Dec 2
New
Dec 9
First Quarter
Dec 17
Full
Dec 25
Last Quarter

Hourly Weather History & Observations

Time (CST) Temp. Windchill Dew Point Humidity Pressure Visibility Wind Dir Wind Speed Gust Speed Precip Events Conditions
12:53 AM 28.9 °F - 26.1 °F 89% 30.43 in 10.0 mi Calm Calm - N/A   Partly Cloudy
1:53 AM 28.0 °F - 27.0 °F 96% 30.41 in 10.0 mi Calm Calm - N/A   Scattered Clouds
2:53 AM 28.0 °F 24.2 °F 27.0 °F 96% 30.40 in 10.0 mi WSW 3.5 mph - N/A   Mostly Cloudy
3:53 AM 30.9 °F 26.2 °F 27.0 °F 85% 30.40 in 10.0 mi West 4.6 mph - N/A   Mostly Cloudy
4:53 AM 30.0 °F - 27.0 °F 88% 30.41 in 10.0 mi Calm Calm - N/A   Mostly Cloudy
5:53 AM 30.9 °F - 28.9 °F 92% 30.42 in 10.0 mi Calm Calm - N/A   Mostly Cloudy
6:53 AM 30.9 °F - 28.9 °F 92% 30.44 in 10.0 mi Calm Calm - N/A   Mostly Cloudy
7:53 AM 33.1 °F 28.7 °F 28.9 °F 85% 30.46 in 10.0 mi West 4.6 mph - N/A   Mostly Cloudy
8:53 AM 36.0 °F - 30.9 °F 82% 30.47 in 10.0 mi Calm Calm - N/A   Mostly Cloudy
9:53 AM 41.0 °F 39.0 °F 30.0 °F 65% 30.48 in 10.0 mi SE 3.5 mph - N/A   Mostly Cloudy
10:53 AM 46.0 °F - 27.0 °F 47% 30.48 in 10.0 mi Calm Calm - N/A   Mostly Cloudy
11:53 AM 48.9 °F - 24.1 °F 38% 30.45 in 10.0 mi Calm Calm - N/A   Mostly Cloudy
12:53 PM 52.0 °F - 25.0 °F 35% 30.41 in 10.0 mi Calm Calm - N/A   Mostly Cloudy
1:53 PM 54.0 °F - 23.0 °F 30% 30.38 in 10.0 mi South 5.8 mph - N/A   Mostly Cloudy
2:53 PM 55.0 °F - 24.1 °F 30% 30.37 in 10.0 mi Calm Calm - N/A   Mostly Cloudy
3:53 PM 55.9 °F - 19.0 °F 24% 30.37 in 10.0 mi SSW 3.5 mph - N/A   Scattered Clouds
4:53 PM 55.0 °F - 21.0 °F 27% 30.38 in 10.0 mi SE 3.5 mph - N/A   Mostly Cloudy
5:53 PM 42.1 °F - 28.0 °F 58% 30.40 in 10.0 mi Calm Calm - N/A   Scattered Clouds
6:53 PM 37.9 °F - 28.9 °F 70% 30.43 in 10.0 mi Calm Calm - N/A   Scattered Clouds
7:53 PM 35.1 °F - 28.9 °F 78% 30.44 in 10.0 mi Calm Calm - N/A   Partly Cloudy
8:53 PM 34.0 °F - 28.9 °F 82% 30.46 in 10.0 mi Calm Calm - N/A   Partly Cloudy
9:53 PM 33.1 °F - 28.9 °F 85% 30.47 in 10.0 mi Calm Calm - N/A   Clear
10:53 PM 30.9 °F - 27.0 °F 85% 30.48 in 10.0 mi Calm Calm - N/A   Clear
11:53 PM 30.0 °F - 28.0 °F 92% 30.48 in 10.0 mi Calm Calm - N/A   Clear